{"data":{"norad_id":64295,"epoch":"2026-05-24T23:51:58.199040Z","epoch_age_seconds":68692,"freshness":"FRESH","line1":"1 64295U 25123E   26144.99442360  .00002507  00000+0  21781-3 0  9998","line2":"2 64295  70.0022   2.2414 0002835 266.2993  93.7842 14.98335986 54263","mean_motion":14.98335986,"eccentricity":0.0002835,"inclination_deg":70.0022,"raan_deg":2.2414,"arg_perigee_deg":266.2993,"mean_anomaly_deg":93.7842,"bstar":0.00021781,"rev_number":5426,"period_min":96.106615168756,"perigee_km":570.06700535816,"apogee_km":574.0077542315,"semimajor_km":6950.1743797948,"source":"CELESTRAK","updated_at":"2026-05-25T13:38:20.365340Z"}}